Location: ???? ??
(36.0534°N, 43.5630°E)
Time: 10:46:06
(UTC+00:00)

Cosmos 1975 - Pass Details

Date: 18 September 2019
Orbit: 543 x 561 km, 82.5° (Epoch: 17 October)

Event Time Altitude Azimuth Distance (km) Brightness Sun altitude
Rises 15:51:44 0° 202° (SSW) 2,690 6.5 -9.4°
Reaches altitude 10° 15:53:58 10° 209° (SSW) 1,803 5.7 -9.8°
Maximum altitude 15:57:43 40° 280° (W) 811 4.4 -10.5°
Drops below altitude 10° 16:01:29 10° 351° (N) 1,820 5.7 -11.3°
Sets 16:03:46 0° 359° (N) 2,719 6.5 -11.7°
